Grand Island, NE

1:27 AM CDT on October 20, 2019 (GMT -0500)
Central Nebraska Regional

Weather History for KGRI - September, 2019

Change the Weather History Date:

Saturday, September 21, 2019

  Actual Average Record
Temperature  
Mean Temperature 77 °F 63 °F  
Max Temperature 88 °F 76 °F 97 °F (1936)
Min Temperature 66 °F 50 °F 28 °F (1995)
Degree Days  
Heating Degree Days 0 5  
Month to date heating degree days 0 51  
Since 1 July heating degree days 1 61  
Cooling Degree Days 12 2  
Month to date cooling degree days 197 94  
Year to date cooling degree days 1118 1008  
Growing Degree Days 27 (Base 50)    
Moisture  
Dew Point 63 °F    
Average Humidity 62    
Maximum Humidity 90    
Minimum Humidity 34    
Precipitation  
Precipitation 0.00 in 0.08 in 0.80 in (1911)
Month to date precipitation 0.54 1.60  
Year to date precipitation 34.12 22.37  
Snow  
Snow 0.00 in 0.00 in - ()
Month to date snowfall 0.0 0.0  
Since 1 July snowfall 0.0 0.0  
Since 1 September snowfall 0.0 0.0  
Snow Depth 0.00 in    
Sea Level Pressure  
Sea Level Pressure 29.80 in    
Wind  
Wind Speed 11 mph (SW)    
Max Wind Speed 23 mph    
Max Gust Speed 30 mph    
Visibility 10 miles    
Events      
T = Trace of Precipitation, MM = Missing Value Source: NWS Daily Summary

Daily Weather History Graph

Daily Weather History Graph

Search for Another Location

Airport or City:

Astronomy

Sep. 21, 2019 Rise Set
Actual Time 7:19 AM CDT 7:32 PM CDT
Civil Twilight 6:52 AM CDT 7:59 PM CDT
Nautical Twilight 6:19 AM CDT 8:31 PM CDT
Astronomical Twilight 5:47 AM CDT 9:04 PM CDT
Moon No Moon Rise 2:30 PM CDT (9/21)
Length of Visible Light 13h 07m
Length of Day
12h 12m
Waning Gibbous, 54% of the Moon is Illuminated
Sep 21
Waning Gibbous
Sep 21
Last Quarter
Sep 28
New
Oct 5
First Quarter
Oct 13
Full

Hourly Weather History & Observations

Time (CDT) Temp. Heat Index Dew Point Humidity Pressure Visibility Wind Dir Wind Speed Gust Speed Precip Events Conditions
12:37 AM 72.0 °F - 66.9 °F 84% 29.83 in 10.0 mi SSE 18.4 mph 27.6 mph N/A   Mostly Cloudy
12:53 AM 72.0 °F - 66.9 °F 84% 29.78 in 10.0 mi South 18.4 mph 28.8 mph N/A   Mostly Cloudy
1:17 AM 73.0 °F - 68.0 °F 84% 29.82 in 10.0 mi South 17.3 mph 29.9 mph N/A   Overcast
1:53 AM 72.0 °F - 68.0 °F 87% 29.77 in 10.0 mi South 16.1 mph 29.9 mph N/A   Mostly Cloudy
2:06 AM 73.0 °F - 68.0 °F 84% 29.81 in 10.0 mi South 16.1 mph 25.3 mph N/A   Mostly Cloudy
2:53 AM 73.0 °F - 68.0 °F 84% 29.75 in 10.0 mi South 18.4 mph 26.5 mph N/A   Overcast
3:53 AM 73.9 °F - 68.0 °F 82% 29.74 in 10.0 mi South 16.1 mph 27.6 mph N/A   Mostly Cloudy
4:53 AM 73.0 °F - 68.0 °F 84% 29.73 in 10.0 mi South 18.4 mph 28.8 mph N/A   Mostly Cloudy
5:19 AM 73.0 °F - 68.0 °F 84% 29.77 in 10.0 mi South 20.7 mph 29.9 mph N/A   Scattered Clouds
5:42 AM 73.0 °F - 68.0 °F 84% 29.79 in 10.0 mi South 17.3 mph 27.6 mph N/A   Mostly Cloudy
5:53 AM 73.0 °F - 68.0 °F 84% 29.75 in 10.0 mi South 16.1 mph 24.2 mph N/A   Overcast
6:53 AM 73.9 °F - 68.0 °F 82% 29.76 in 10.0 mi SSW 16.1 mph 25.3 mph N/A   Overcast
7:39 AM 73.0 °F - 66.9 °F 81% 29.80 in 10.0 mi SSW 11.5 mph - N/A   Scattered Clouds
7:53 AM 73.0 °F - 66.9 °F 81% 29.77 in 10.0 mi SSW 10.4 mph - N/A   Partly Cloudy
8:53 AM 73.9 °F - 66.9 °F 79% 29.78 in 10.0 mi SSW 12.7 mph - N/A   Clear
9:53 AM 75.9 °F - 66.9 °F 74% 29.80 in 10.0 mi SSW 16.1 mph - N/A   Scattered Clouds
10:16 AM 75.9 °F - 66.0 °F 71% 29.83 in 10.0 mi SSW 12.7 mph - N/A   Mostly Cloudy
10:53 AM 79.0 °F - 66.9 °F 66% 29.81 in 10.0 mi SW 12.7 mph - N/A   Mostly Cloudy
11:53 AM 81.0 °F 83.0 °F 66.0 °F 60% 29.81 in 10.0 mi WSW 8.1 mph - N/A   Overcast
12:15 PM 81.0 °F 83.0 °F 66.0 °F 60% 29.84 in 10.0 mi WSW 5.8 mph - N/A   Mostly Cloudy
12:53 PM 82.9 °F 85.0 °F 66.0 °F 56% 29.81 in 10.0 mi NW 5.8 mph - N/A   Overcast
1:53 PM 84.0 °F 85.8 °F 64.9 °F 53% 29.80 in 10.0 mi WNW 6.9 mph 17.3 mph N/A   Partly Cloudy
2:53 PM 86.0 °F 87.6 °F 64.9 °F 49% 29.80 in 10.0 mi NNW 12.7 mph - N/A   Partly Cloudy
3:53 PM 88.0 °F 87.9 °F 61.0 °F 40% 29.80 in 10.0 mi NNW 9.2 mph - N/A   Partly Cloudy
4:53 PM 87.1 °F 86.5 °F 59.0 °F 39% 29.80 in 10.0 mi NNW 6.9 mph - N/A   Clear
5:53 PM 86.0 °F 84.9 °F 57.0 °F 37% 29.80 in 10.0 mi North 8.1 mph - N/A   Clear
6:53 PM 82.0 °F - 52.0 °F 35% 29.81 in 10.0 mi NNW 8.1 mph - N/A   Clear
7:53 PM 71.1 °F - 54.0 °F 55% 29.81 in 10.0 mi NNW 9.2 mph - N/A   Clear
8:53 PM 66.9 °F - 52.0 °F 59% 29.85 in 10.0 mi North 6.9 mph - N/A   Clear
9:53 PM 69.1 °F - 48.0 °F 47% 29.83 in 10.0 mi North 13.8 mph - N/A   Clear
10:53 PM 68.0 °F - 50.0 °F 52% 29.86 in 10.0 mi NE 8.1 mph - N/A   Overcast
11:53 PM 68.0 °F - 50.0 °F 52% 29.88 in 10.0 mi NNE 4.6 mph - N/A   Overcast